Location: ???????
(38.3360°N, 23.6977°E)
Time: 22:49:29
(UTC+00:00)

Cosmos 676 Rocket - Pass Details

Date: 17 November 2025
Orbit: 750 x 778 km, 74.0° (Epoch: 13 December)

Event Time Altitude Azimuth Distance (km) Brightness Sun altitude
Rises 16:51:43 0° 197° (SSW) 3,245 7.6 -19.7°
Reaches altitude 10° 16:54:05 10° 197° (SSW) 2,321 6.8 -20.1°
Maximum altitude 16:59:22 89° 278° (W) 783 3.9 -21.2°
Enters shadow 17:03:01 21° 18° (NNE) 1,698 5.5 -21.9°
